Weather History for Grand Rapids, MN

Change the Weather History Date:

Tuesday, September 20, 2011

  Actual Average Record
Temperature  
Mean Temperature 55 °F -  
Max Temperature 59 °F 63 °F 88 °F (1984)
Min Temperature 51 °F 41 °F 22 °F (1973)
Degree Days  
Heating Degree Days 10    
Growing Degree Days 5 (Base 50)    
Moisture  
Dew Point 46 °F    
Average Humidity 73    
Maximum Humidity 88    
Minimum Humidity 58    
Precipitation  
Precipitation 0.03 in - - ()
Sea Level Pressure  
Sea Level Pressure 29.71 in    
Wind  
Wind Speed 10 mph (SSE)    
Max Wind Speed 15 mph    
Max Gust Speed 21 mph    
Visibility 10 miles    
Events      
Averages and records for this station are not official NWS values.
T = Trace of Precipitation, MM = Missing Value Source: NWS Daily Summary

Daily Weather History Graph

Daily Weather History Graph

Search for Another Location

Airport:

Trip Planner

Search our weather history database for the weather conditions in past years. The results will help you decide how hot, cold, wet, or windy it might be!

Date:

Astronomy

Sep. 20, 2011 Rise Set
Actual Time 6:57 AM CDT 7:16 PM CDT
Civil Twilight 6:27 AM CDT 7:46 PM CDT
Nautical Twilight 5:51 AM CDT 8:22 PM CDT
Astronomical Twilight 5:13 AM CDT 8:59 PM CDT
Moon 11:55 PM CDT (9/20) 3:04 PM CDT (9/20)
Length of Visible Light 13h 19m
Length of Day
12h 18m
Waning Gibbous, 48% of the Moon is Illuminated
Sep 20
Waning Gibbous
Sep 27
New
Oct 3
First Quarter
Oct 11
Full
Oct 19
Last Quarter

Hourly Weather History & Observations

Time (CDT) Temp. Dew Point Humidity Pressure Visibility Wind Dir Wind Speed Gust Speed Precip Events Conditions
12:15 AM 53.6 °F 44.6 °F 72% 29.87 in 10.0 mi South 9.2 mph - N/A   Overcast
12:35 AM 53.6 °F 44.6 °F 72% 29.87 in 10.0 mi South 9.2 mph - N/A   Scattered Clouds
12:55 AM 51.8 °F 42.8 °F 71% 29.87 in 10.0 mi South 9.2 mph - N/A   Mostly Cloudy
1:15 AM 53.6 °F 44.6 °F 72% 29.86 in 10.0 mi South 9.2 mph - N/A   Overcast
1:35 AM 55.4 °F 44.6 °F 67% 29.85 in 10.0 mi SSE 12.7 mph - N/A   Overcast
1:55 AM 55.4 °F 42.8 °F 63% 29.85 in 10.0 mi South 11.5 mph - N/A   Overcast
2:15 AM 57.2 °F 42.8 °F 59% 29.84 in 10.0 mi SSE 12.7 mph 18.4 mph N/A   Overcast
2:35 AM 57.2 °F 42.8 °F 59% 29.84 in 10.0 mi SSE 15.0 mph - N/A   Overcast
2:55 AM 55.4 °F 42.8 °F 63% 29.84 in 10.0 mi SSE 15.0 mph - N/A   Mostly Cloudy
3:15 AM 55.4 °F 42.8 °F 63% 29.83 in 10.0 mi SSE 15.0 mph 20.7 mph N/A   Mostly Cloudy
3:35 AM 55.4 °F 42.8 °F 63% 29.82 in 10.0 mi SSE 13.8 mph - N/A   Mostly Cloudy
3:55 AM 55.4 °F 42.8 °F 63% 29.81 in 10.0 mi SSE 12.7 mph - N/A   Partly Cloudy
4:15 AM 55.4 °F 42.8 °F 63% 29.81 in 10.0 mi SSE 10.4 mph 17.3 mph N/A   Clear
4:35 AM 55.4 °F 42.8 °F 63% 29.80 in 10.0 mi SSE 12.7 mph 17.3 mph N/A   Clear
4:55 AM 55.4 °F 42.8 °F 63% 29.79 in 10.0 mi SSE 13.8 mph - N/A   Mostly Cloudy
5:15 AM 55.4 °F 42.8 °F 63% 29.79 in 10.0 mi SSE 12.7 mph - N/A   Overcast
5:35 AM 55.4 °F 42.8 °F 63% 29.78 in 10.0 mi SSE 13.8 mph 18.4 mph N/A   Overcast
5:55 AM 55.4 °F 42.8 °F 63% 29.78 in 10.0 mi SSE 12.7 mph - N/A   Overcast
6:15 AM 55.4 °F 41.0 °F 58% 29.76 in 10.0 mi SSE 13.8 mph 20.7 mph N/A   Overcast
6:35 AM 55.4 °F 41.0 °F 58% 29.76 in 10.0 mi SE 10.4 mph 16.1 mph N/A   Mostly Cloudy
6:55 AM 53.6 °F 41.0 °F 62% 29.75 in 10.0 mi SE 8.1 mph - N/A   Partly Cloudy
7:15 AM 53.6 °F 41.0 °F 62% 29.76 in 10.0 mi SSE 6.9 mph - N/A   Clear
7:35 AM 53.6 °F 41.0 °F 62% 29.76 in 10.0 mi SE 9.2 mph - N/A   Scattered Clouds
7:55 AM 51.8 °F 41.0 °F 67% 29.75 in 10.0 mi SE 10.4 mph 17.3 mph N/A   Mostly Cloudy
8:15 AM 53.6 °F 42.8 °F 67% 29.73 in 10.0 mi SE 12.7 mph - N/A   Overcast
8:35 AM 53.6 °F 42.8 °F 67% 29.71 in 10.0 mi SE 9.2 mph - N/A   Overcast
8:55 AM 53.6 °F 44.6 °F 72% 29.70 in 10.0 mi SE 10.4 mph - N/A   Overcast
9:15 AM 53.6 °F 44.6 °F 72% 29.70 in 10.0 mi SE 10.4 mph - N/A   Overcast
9:35 AM 53.6 °F 44.6 °F 72% 29.69 in 10.0 mi SE 10.4 mph - N/A   Overcast
9:55 AM 55.4 °F 44.6 °F 67% 29.68 in 10.0 mi SE 11.5 mph - N/A   Overcast
10:15 AM 55.4 °F 44.6 °F 67% 29.67 in 10.0 mi SE 9.2 mph 16.1 mph N/A   Overcast
10:35 AM 55.4 °F 46.4 °F 72% 29.66 in 10.0 mi SSE 11.5 mph - N/A   Overcast
10:55 AM 55.4 °F 46.4 °F 72% 29.64 in 10.0 mi SE 12.7 mph 19.6 mph N/A   Overcast
11:15 AM 55.4 °F 48.2 °F 77% 29.63 in 10.0 mi SE 11.5 mph 18.4 mph 0.01 in   Overcast
11:35 AM 55.4 °F 50.0 °F 82% 29.64 in 10.0 mi SSE 10.4 mph 19.6 mph 0.01 in   Overcast
11:55 AM 57.2 °F 51.8 °F 82% 29.63 in 10.0 mi SSE 13.8 mph 19.6 mph 0.01 in   Overcast
12:15 PM 55.4 °F 51.8 °F 88% 29.64 in 10.0 mi SSE 12.7 mph - N/A   Overcast
12:35 PM 55.4 °F 51.8 °F 88% 29.62 in 10.0 mi SSE 9.2 mph 18.4 mph N/A   Overcast
12:55 PM 55.4 °F 51.8 °F 88% 29.62 in 10.0 mi South 10.4 mph - N/A   Overcast
1:15 PM 55.4 °F 51.8 °F 88% 29.62 in 10.0 mi SSE 10.4 mph - N/A   Overcast
1:35 PM 55.4 °F 51.8 °F 88% 29.61 in 10.0 mi SE 11.5 mph - N/A   Overcast
1:55 PM 55.4 °F 51.8 °F 88% 29.61 in 10.0 mi SE 10.4 mph - N/A   Overcast
2:15 PM 55.4 °F 51.8 °F 88% 29.61 in 10.0 mi SE 8.1 mph - N/A   Mostly Cloudy
2:35 PM 57.2 °F 53.6 °F 88% 29.61 in 10.0 mi SSE 11.5 mph 16.1 mph N/A   Mostly Cloudy
2:55 PM 59.0 °F 53.6 °F 82% 29.61 in 10.0 mi SSE 11.5 mph - N/A   Overcast
3:15 PM 59.0 °F 53.6 °F 82% 29.60 in 10.0 mi South 10.4 mph - N/A   Overcast
3:35 PM 57.2 °F 51.8 °F 82% 29.60 in 10.0 mi SSW 10.4 mph 16.1 mph 0.02 in   Overcast
3:55 PM 57.2 °F 50.0 °F 77% 29.61 in 10.0 mi SSW 11.5 mph 18.4 mph 0.02 in   Mostly Cloudy
4:15 PM 57.2 °F 46.4 °F 67% 29.61 in 10.0 mi SSW 10.4 mph - N/A   Overcast
4:35 PM 55.4 °F 44.6 °F 67% 29.63 in 10.0 mi SSW 8.1 mph 17.3 mph N/A   Overcast
4:55 PM 53.6 °F 44.6 °F 72% 29.63 in 10.0 mi SW 6.9 mph - N/A   Overcast
5:15 PM 51.8 °F 46.4 °F 82% 29.63 in 10.0 mi SSW 4.6 mph - N/A   Overcast
5:35 PM 51.8 °F 46.4 °F 82% 29.63 in 10.0 mi Calm Calm - N/A   Mostly Cloudy
5:55 PM 51.8 °F 46.4 °F 82% 29.63 in 9.0 mi Calm Calm - N/A   Overcast
6:15 PM 51.8 °F 46.4 °F 82% 29.62 in 10.0 mi Calm Calm - N/A   Overcast
6:35 PM 51.8 °F 46.4 °F 82% 29.61 in 10.0 mi East 4.6 mph - N/A   Overcast
6:55 PM 51.8 °F 46.4 °F 82% 29.61 in 9.0 mi East 5.8 mph - N/A   Overcast
7:15 PM 51.8 °F 46.4 °F 82% 29.60 in 5.0 mi East 5.8 mph - N/A   Mostly Cloudy
7:35 PM 51.8 °F 46.4 °F 82% 29.59 in 10.0 mi East 5.8 mph - N/A   Overcast
7:55 PM 50.0 °F 46.4 °F 87% 29.59 in 10.0 mi East 3.5 mph - N/A   Overcast
8:15 PM 51.8 °F 46.4 °F 82% 29.59 in 9.0 mi SSE 3.5 mph - N/A   Overcast
8:35 PM 50.0 °F 46.4 °F 87% 29.59 in 9.0 mi ESE 4.6 mph - N/A   Overcast
8:55 PM 50.0 °F 46.4 °F 87% 29.58 in 7.0 mi ESE 5.8 mph - N/A   Overcast
9:15 PM 50.0 °F 46.4 °F 87% 29.58 in 9.0 mi SE 4.6 mph - N/A   Overcast
9:35 PM 50.0 °F 46.4 °F 87% 29.58 in 10.0 mi SE 4.6 mph - N/A   Overcast
9:55 PM 51.8 °F 46.4 °F 82% 29.58 in 10.0 mi SE 9.2 mph - N/A   Overcast
10:15 PM 51.8 °F 46.4 °F 82% 29.58 in 7.0 mi SE 6.9 mph - N/A   Overcast
10:35 PM 51.8 °F 46.4 °F 82% 29.57 in 10.0 mi SE 5.8 mph - N/A   Overcast
11:15 PM 51.8 °F 48.2 °F 88% 29.57 in 5.0 mi SE 5.8 mph - N/A   Overcast
11:35 PM 51.8 °F 48.2 °F 88% 29.58 in 6.0 mi SSE 4.6 mph - N/A   Mostly Cloudy
11:55 PM 51.8 °F 48.2 °F 88% 29.58 in 9.0 mi SE 4.6 mph - N/A   Overcast